Location: Banff
(51.1667°N, 115.5667°W)
Time: 10:12:10
(UTC+00:00)

SR - Pass Details

Date: 27 November 2020
Orbit: 575 x 880 km, 66.7° (Epoch: 19 January)

Event Time Altitude Azimuth Distance (km) Brightness Sun altitude
Rises 02:56:01 0° 211° (SSW) 2,808 ? -29.7°
Reaches altitude 10° 02:58:11 10° 210° (SSW) 1,934 ? -30.1°
Enters shadow 02:58:57 15° 209° (SSW) 1,632 ? -30.2°
